| time (UTC) | temp F | wind direction | speed MPH | gust MPH | rain 1hr in | rain 24hr in | rain mn in | humidity % | barometer mb |
| 20260906114611 | 55 | 58 | 5.0 | 0.0 | 0.00 | 0.00 | 0.00 | 90 | 992.8 |
| 20260906113109 | 55 | 50 | 5.0 | 0.0 | 0.00 | 0.00 | 0.00 | 88 | 994.2 |
| 20260906111609 | 56 | 61 | 5.0 | 0.0 | 0.00 | 0.00 | 0.00 | 88 | 994.2 |
| 20260906110112 | 56 | 64 | 5.0 | 0.0 | 0.00 | 0.00 | 0.00 | 88 | 994.2 |
| 20260906104609 | 56 | 57 | 5.0 | 0.0 | 0.00 | 0.00 | 0.00 | 84 | 993.4 |
| 20260906103113 | 56 | 51 | 4.0 | 0.0 | 0.00 | 0.00 | 0.00 | 86 | 994.2 |
| 20260906101604 | 57 | 58 | 5.0 | 0.0 | 0.00 | 0.00 | 0.00 | 86 | 994.2 |
| 20260906100115 | 57 | 59 | 5.0 | 0.0 | 0.00 | 0.00 | 0.00 | 86 | 994.2 |
| 20260906094612 | 57 | 54 | 4.0 | 0.0 | 0.00 | 0.00 | 0.00 | 88 | 993.5 |
| 20260906093112 | 57 | 45 | 4.0 | 0.0 | 0.00 | 0.00 | 0.00 | 85 | 994.1 |
| 20260906091609 | 57 | 56 | 4.0 | 0.0 | 0.00 | 0.00 | 0.00 | 85 | 994.1 |
| 20260906090115 | 58 | 60 | 4.0 | 0.0 | 0.00 | 0.00 | 0.00 | 85 | 994.1 |
| 20260906084612 | 58 | 60 | 4.0 | 0.0 | 0.00 | 0.00 | 0.00 | 85 | 993.1 |
| 20260906083109 | 58 | 56 | 4.0 | 0.0 | 0.00 | 0.00 | 0.00 | 79 | 993.5 |
| 20260906081607 | 59 | 65 | 6.0 | 0.0 | 0.00 | 0.00 | 0.00 | 79 | 993.6 |
| 20260906080131 | 59 | 66 | 6.0 | 0.0 | 0.00 | 0.00 | 0.00 | 76 | 993.4 |
| 20260906074610 | 60 | 67 | 6.0 | 0.0 | 0.00 | 0.00 | 0.00 | 75 | 992.5 |
| 20260906073109 | 60 | 65 | 5.0 | 0.0 | 0.00 | 0.00 | 0.00 | 75 | 992.5 |
| 20260906071611 | 60 | 69 | 5.0 | 0.0 | 0.00 | 0.00 | 0.00 | 75 | 992.5 |
| 20260906070113 | 61 | 71 | 6.0 | 0.0 | 0.00 | 0.00 | 0.00 | 75 | 992.5 |
| 20260906064620 | 61 | 75 | 6.0 | 0.0 | 0.00 | 0.00 | 0.00 | 74 | 992.0 |
| 20260906063115 | 61 | 78 | 6.0 | 0.0 | 0.00 | 0.00 | 0.00 | 70 | 992.4 |
| 20260906061609 | 62 | 76 | 6.0 | 0.0 | 0.00 | 0.00 | 0.00 | 70 | 992.4 |
| 20260906060114 | 62 | 76 | 6.0 | 0.0 | 0.00 | 0.00 | 0.00 | 70 | 992.4 |
| 20260906054611 | 62 | 81 | 6.0 | 0.0 | 0.00 | 0.00 | 0.00 | 70 | 992.6 |
| 20260906053106 | 62 | 77 | 6.0 | 0.0 | 0.00 | 0.00 | 0.00 | 68 | 992.3 |
| 20260906051610 | 63 | 80 | 6.0 | 0.0 | 0.00 | 0.00 | 0.00 | 68 | 992.3 |
| 20260906050113 | 63 | 73 | 6.0 | 0.0 | 0.00 | 0.00 | 0.00 | 68 | 992.3 |
| 20260906044610 | 64 | 74 | 7.0 | 0.0 | 0.00 | 0.00 | 0.00 | 71 | 992.2 |
| 20260906043116 | 64 | 72 | 8.0 | 0.0 | 0.00 | 0.00 | 0.00 | 71 | 992.1 |
| 20260906041609 | 64 | 69 | 7.0 | 0.0 | 0.00 | 0.00 | 0.00 | 71 | 992.1 |
| 20260906040105 | 65 | 69 | 7.0 | 0.0 | 0.00 | 0.00 | 0.00 | 71 | 992.1 |
| 20260906034604 | 65 | 70 | 7.0 | 0.0 | 0.00 | 0.00 | 0.00 | 72 | 991.9 |
| 20260906033111 | 66 | 69 | 6.0 | 0.0 | 0.00 | 0.00 | 0.00 | 77 | 992.3 |
| 20260906031609 | 66 | 65 | 6.0 | 0.0 | 0.00 | 0.00 | 0.00 | 77 | 992.3 |
| 20260906030112 | 67 | 63 | 6.0 | 0.0 | 0.00 | 0.00 | 0.00 | 77 | 992.3 |
| 20260906024609 | 67 | 58 | 6.0 | 0.0 | 0.00 | 0.00 | 0.00 | 74 | 990.8 |
| 20260906023105 | 68 | 61 | 6.0 | 0.0 | 0.00 | 0.00 | 0.00 | 73 | 991.3 |
| 20260906021603 | 68 | 63 | 7.0 | 0.0 | 0.00 | 0.00 | 0.00 | 73 | 991.3 |
| 20260906015116 | 69 | 58 | 7.0 | 0.0 | 0.00 | 0.00 | 0.00 | 74 | 990.6 |
| 20260906013107 | 69 | 56 | 6.0 | 0.0 | 0.00 | 0.00 | 0.00 | 74 | 990.6 |
| 20260906011608 | 69 | 60 | 8.0 | 0.0 | 0.00 | 0.00 | 0.00 | 74 | 990.5 |
| 20260906010122 | 70 | 59 | 7.0 | 0.0 | 0.00 | 0.00 | 0.00 | 74 | 990.5 |
| 20260906004607 | 70 | 53 | 6.0 | 0.0 | 0.00 | 0.00 | 0.00 | 78 | 990.7 |
| 20260906003115 | 70 | 37 | 5.0 | 0.0 | 0.00 | 0.00 | 0.00 | 72 | 990.7 |
| 20260906001607 | 71 | 35 | 5.0 | 0.0 | 0.00 | 0.00 | 0.00 | 72 | 990.7 |
| 20260906000116 | 72 | 35 | 5.0 | 0.0 | 0.00 | 0.00 | 0.00 | 72 | 990.7 |
| 20260905234613 | 73 | 31 | 5.0 | 0.0 | 0.00 | 0.00 | 0.00 | 68 | 990.5 |
| 20260905233109 | 73 | 38 | 5.0 | 0.0 | 0.00 | 0.00 | 0.00 | 68 | 990.5 |
| 20260905231612 | 74 | 42 | 6.0 | 0.0 | 0.00 | 0.00 | 0.00 | 68 | 990.5 |
| 20260905230113 | 75 | 45 | 6.0 | 0.0 | 0.00 | 0.00 | 0.00 | 68 | 990.5 |
| 20260905224613 | 75 | 47 | 7.0 | 0.0 | 0.00 | 0.00 | 0.00 | 73 | 990.3 |
| 20260905223105 | 76 | 52 | 6.0 | 0.0 | 0.00 | 0.00 | 0.00 | 71 | 990.8 |
| 20260905221607 | 76 | 56 | 7.0 | 0.0 | 0.00 | 0.00 | 0.00 | 71 | 990.8 |
| 20260905220106 | 76 | 55 | 7.0 | 0.0 | 0.00 | 0.00 | 0.00 | 71 | 990.8 |
| 20260905214612 | 76 | 51 | 7.0 | 0.0 | 0.00 | 0.00 | 0.00 | 77 | 990.5 |
| 20260905213114 | 76 | 53 | 7.0 | 0.0 | 0.00 | 0.00 | 0.00 | 75 | 990.9 |
| 20260905211607 | 75 | 57 | 7.0 | 0.0 | 0.00 | 0.00 | 0.00 | 75 | 990.9 |
| 20260905210114 | 75 | 58 | 8.0 | 0.0 | 0.00 | 0.00 | 0.00 | 75 | 990.9 |
| 20260905204612 | 75 | 57 | 8.0 | 0.0 | 0.00 | 0.00 | 0.00 | 84 | 990.1 |
| 20260905203112 | 74 | 54 | 8.0 | 0.0 | 0.00 | 0.00 | 0.00 | 83 | 990.4 |
| 20260905201612 | 73 | 45 | 7.0 | 0.0 | 0.00 | 0.00 | 0.00 | 83 | 990.4 |
| 20260905200119 | 73 | 45 | 8.0 | 0.0 | 0.00 | 0.00 | 0.00 | 83 | 990.4 |
| 20260905194613 | 73 | 46 | 8.0 | 0.0 | 0.00 | 0.00 | 0.00 | 79 | 990.4 |
| 20260905193113 | 72 | 47 | 8.0 | 0.0 | 0.00 | 0.00 | 0.00 | 79 | 990.4 |
| 20260905191606 | 73 | 38 | 6.0 | 0.0 | 0.00 | 0.00 | 0.00 | 79 | 990.5 |
| 20260905190121 | 73 | 49 | 6.0 | 0.0 | 0.00 | 0.00 | 0.00 | 79 | 990.5 |
| 20260905184614 | 73 | 58 | 6.0 | 0.0 | 0.00 | 0.00 | 0.00 | 83 | 991.2 |
| 20260905183113 | 73 | 56 | 6.0 | 0.0 | 0.00 | 0.00 | 0.00 | 80 | 991.3 |
| 20260905181612 | 74 | 69 | 7.0 | 0.0 | 0.00 | 0.00 | 0.00 | 80 | 991.3 |
| 20260905180114 | 73 | 66 | 7.0 | 0.0 | 0.00 | 0.00 | 0.00 | 80 | 991.3 |
| 20260905174612 | 73 | 56 | 7.0 | 0.0 | 0.00 | 0.00 | 0.00 | 80 | 991.6 |
| 20260905173113 | 74 | 58 | 7.0 | 0.0 | 0.00 | 0.00 | 0.00 | 80 | 990.8 |
| 20260905171613 | 75 | 67 | 5.0 | 0.0 | 0.00 | 0.00 | 0.00 | 80 | 990.8 |
| 20260905170123 | 74 | 76 | 5.0 | 0.0 | 0.00 | 0.00 | 0.00 | 80 | 990.8 |
| 20260905164613 | 73 | 85 | 5.0 | 0.0 | 0.00 | 0.00 | 0.00 | 87 | 991.1 |
| 20260905163113 | 73 | 88 | 5.0 | 0.0 | 0.00 | 0.00 | 0.00 | 80 | 990.1 |
| 20260905161610 | 74 | 86 | 6.0 | 0.0 | 0.00 | 0.00 | 0.00 | 80 | 990.2 |
| 20260905160107 | 74 | 88 | 6.0 | 0.0 | 0.00 | 0.00 | 0.00 | 80 | 990.2 |
| 20260905154607 | 73 | 86 | 6.0 | 0.0 | 0.00 | 0.00 | 0.00 | 85 | 991.5 |
| 20260905153112 | 72 | 79 | 7.0 | 0.0 | 0.00 | 0.00 | 0.00 | 86 | 990.2 |
| 20260905151607 | 72 | 66 | 8.0 | 0.0 | 0.00 | 0.00 | 0.00 | 86 | 990.2 |
| 20260905150107 | 71 | 73 | 8.0 | 0.0 | 0.00 | 0.00 | 0.00 | 86 | 990.2 |
| 20260905144620 | 71 | 74 | 7.0 | 0.0 | 0.00 | 0.00 | 0.00 | 90 | 990.8 |
| 20260905143104 | 71 | 68 | 7.0 | 0.0 | 0.00 | 0.00 | 0.00 | 88 | 990.3 |
| 20260905141612 | 71 | 58 | 8.0 | 0.0 | 0.00 | 0.00 | 0.00 | 88 | 990.4 |
| 20260905140113 | 71 | 57 | 8.0 | 0.0 | 0.00 | 0.00 | 0.00 | 88 | 990.4 |
| 20260905134612 | 71 | 55 | 8.0 | 0.0 | 0.00 | 0.00 | 0.00 | 93 | 989.5 |
| 20260905133113 | 71 | 60 | 8.0 | 0.0 | 0.00 | 0.00 | 0.00 | 93 | 989.5 |
| 20260905131607 | 70 | 67 | 8.0 | 0.0 | 0.00 | 0.00 | 0.00 | 93 | 989.5 |
| 20260905130115 | 70 | 65 | 7.0 | 0.0 | 0.00 | 0.00 | 0.00 | 93 | 989.5 |
| 20260905124612 | 70 | 54 | 8.0 | 0.0 | 0.00 | 0.00 | 0.00 | 96 | 989.1 |
| 20260905123114 | 69 | 49 | 6.0 | 0.0 | 0.00 | 0.00 | 0.00 | 96 | 989.1 |
| 20260905121612 | 69 | 47 | 7.0 | 0.0 | 0.00 | 0.00 | 0.00 | 96 | 989.1 |
| 20260905120118 | 69 | 55 | 7.0 | 0.0 | 0.00 | 0.00 | 0.00 | 96 | 989.1 |